User: anonymous   Login
Location: Oshawa
(43.9000°N, 78.8670°W)
Time: 04:57:51
(UTC-05:00)
Language:

IDEFIX/ARIANE 42P - Orbit

View from above orbital plane
View from above orbital plane
View from above satellite
View from above satellite

Ground track
Ground track

The orbit data is extracted from the following two-line orbital elements,

1 27422U 02021B   17350.87719742 -.00000038  00000-0  10915-5 0  9996
2 27422  98.2405 341.1468 0013294  58.0145 302.2328 14.29259756812771
Epoch (UTC): 16 December 2017 21:03:09
Eccentricity: 0.0013294
inclination: 98.2405°
perigee height: 784 km
apogee height: 804 km
right ascension of ascending node: 341.1468°
argument of perigee: 58.0145°
revolutions per day: 14.29259756
mean anomaly at epoch: 302.2328°
orbit number at epoch: 81277

The dashed part of the orbit path shows where the satellite is in the earth's shadow,  

DLR